Flag for Germany Past Weather in Leutkirch im Allgäu, Baden-Württemberg, Germany — Yesterday and Last 2 Weeks

Now
59 °F

Partly sunny.


Feels Like: 59 °F
Forecast: 53 / 57 °F
Wind: 2 mph from North

Location: Friedrichshafen Airport

Current Time: May 29, 2016 at 7:50:27 AM

Latest Report: May 29, 2016 at 6:50 AM


Visibility: N/A

Pressure: 29.77 "Hg (27.54 "Hg at 656m altitude)

Humidity: 94%

Dew Point: 57 °F

Location of Leutkirch im AllgäuLocation

Past Weather in Leutkirch im Allgäu — Graph

°F

Leutkirch im Allgäu Temperature Yesterday

Maximum temperature yesterday: 75 °F (at 6:50 PM)
Minimum temperature yesterday: 57 °F (at 2:50 AM)
Average temperature yesterday: 65 °F

High & Low Weather Summary for the Past Weeks

 TemperatureHumidityPressure
High81 °F (May 22, 2:20 PM)100% (May 14, 6:20 AM)30.18 "Hg (May 14, 6:20 AM)
Low37 °F (May 16, 6:20 AM)32% (May 22, 5:20 PM)29.68 "Hg (May 14, 6:20 AM)
Average55 °F78%29.99 "Hg
* Reported May 14 6:20 AM — May 29 6:20 AM, Leutkirch im Allgäu, Weather by CustomWeather, © 2016

Note: Actual official high and low records may vary slightly from our data, if they occured in-between our weather recording intervals... More about our weather records

Advertising

Leutkirch im Allgäu Weather History for the Previous 24 Hours

Scroll right to see more
 ConditionsComfort  
Time TempWeatherWind HumidityBarometerVisibility
6:20 AM
Sun, May 29
59 °FPassing clouds.2 mph94%29.77 "HgN/A
5:50 AM59 °FPassing clouds.1 mph94%29.74 "HgN/A
5:20 AM61 °FPartly cloudy.6 mph94%29.77 "HgN/A
4:50 AM61 °FClear.2 mph94%29.77 "Hg10 mi
4:20 AM63 °FMostly cloudy.3 mph88%29.77 "HgN/A
3:50 AM63 °FPartly cloudy.6 mph88%29.80 "HgN/A
3:20 AM61 °FPassing clouds.5 mph94%29.77 "HgN/A
2:50 AM61 °FClear.3 mph94%29.77 "Hg10 mi
2:20 AM63 °FClear.3 mph88%29.77 "Hg10 mi
1:50 AM61 °FClear.1 mph94%29.77 "Hg10 mi
1:20 AM61 °FClear.1 mph94%29.77 "Hg10 mi
12:50 AM61 °FClear.2 mph94%29.77 "Hg10 mi
12:20 AM63 °FClear.2 mph88%29.77 "Hg10 mi
11:50 PM
Sat, May 28
61 °FClear.7 mph94%29.77 "Hg10 mi
11:20 PM63 °FClear.5 mph88%29.77 "Hg10 mi
10:50 PM64 °FClear.2 mph83%29.80 "Hg10 mi
10:20 PM64 °FClear.2 mph83%29.80 "Hg10 mi
9:50 PM64 °FSunny.5 mph88%29.80 "Hg10 mi
9:20 PM64 °FSunny.5 mph88%29.80 "Hg10 mi
8:50 PM66 °FSunny.1 mph83%29.80 "Hg10 mi
8:20 PM68 °FSunny.2 mph73%29.80 "Hg10 mi
7:50 PM70 °FSunny.2 mph69%29.80 "Hg10 mi
6:50 PM75 °FSunny.No wind50%29.83 "Hg10 mi
6:20 PM73 °FSunny.2 mph53%29.83 "Hg10 mi
5:50 PM73 °FMild.3 mph57%29.86 "HgN/A
5:20 PM73 °FSunny.1 mph61%29.86 "Hg10 mi
4:50 PM70 °FPassing clouds.5 mph69%29.86 "HgN/A
4:20 PM70 °FPartly sunny.6 mph69%29.89 "HgN/A
3:20 PM70 °FScattered clouds.5 mph69%29.89 "HgN/A
2:50 PM68 °FPartly sunny.3 mph78%29.92 "HgN/A
2:20 PM68 °FBroken clouds.5 mph73%29.92 "HgN/A
1:50 PM68 °FPartly sunny.5 mph78%29.92 "HgN/A
1:20 PM66 °FOvercast.5 mph78%29.95 "HgN/A
12:50 PM64 °FSprinkles. Broken clouds.5 mph88%29.95 "HgN/A
12:20 PM66 °FSprinkles. Partly sunny.7 mph83%29.95 "HgN/A
11:50 AM66 °FBroken clouds.7 mph83%29.95 "HgN/A
11:20 AM66 °FSunny.3 mph83%29.92 "Hg10 mi
10:50 AM66 °FPassing clouds.5 mph83%29.95 "HgN/A
10:20 AM68 °FPartly sunny.6 mph73%29.95 "HgN/A
9:50 AM68 °FSunny.3 mph78%29.95 "Hg10 mi
9:20 AM66 °FSunny.2 mph83%29.95 "Hg10 mi
8:50 AM64 °FPartly sunny.6 mph88%29.95 "HgN/A
8:20 AM64 °FPassing clouds.2 mph88%29.95 "HgN/A
7:50 AM61 °FPassing clouds.2 mph94%29.95 "HgN/A
7:20 AM61 °FPassing clouds.5 mph94%29.98 "HgN/A
Weather by CustomWeather, © 2016

See weather overviewHow to use our weather pages